Home > Weather > Rothesay > Past weeks

Flag for Canada Past Weather in Rothesay, New Brunswick, Canada — Yesterday and Last 2 Weeks

Now
57 °F

Fog.


Feels Like: 56 °F
Forecast: 50 / 65 °F
Wind: 6 mph from Southeast

Location: Saint John

Current Time: May 24, 2016 at 10:50:55 AM

Latest Report: May 24, 2016 at 10:00 AM


Visibility: 6 mi

Pressure: 30.04 "Hg

Humidity: 94%

Dew Point: 55 °F

Location of RothesayLocation

Past Weather in Rothesay — Graph

°F

Rothesay Temperature Yesterday

Maximum temperature yesterday: 63 °F (at 5:00 PM)
Minimum temperature yesterday: 52 °F (at 12:00 AM)
Average temperature yesterday: 56 °F

High & Low Weather Summary for the Past Weeks

 TemperatureHumidityPressure
High75 °F (May 21, 11:00 AM)100% (May 14, 9:00 AM)30.14 "Hg (May 14, 9:00 AM)
Low28 °F (May 12, 3:00 AM)19% (May 11, 5:00 PM)29.41 "Hg (May 15, 8:00 PM)
Average51 °F68%29.90 "Hg
* Reported May 9 9:00 AM — May 24 9:00 AM, Rothesay, Weather by CustomWeather, © 2016

Note: Actual official high and low records may vary slightly from our data, if they occured in-between our weather recording intervals... More about our weather records

Advertising

Rothesay Weather History for the Previous 24 Hours

Scroll right to see more
 ConditionsComfort  
Time TempWeatherWind HumidityBarometerVisibility
9:00 AM
Tue, May 24
55 °FFog.2 mph100%30.03 "Hg3 mi
8:00 AM54 °FFog.6 mph100%30.03 "Hg0 mi
7:00 AM54 °FFog.2 mph94%30.03 "Hg1 mi
6:00 AM54 °FFog.2 mph94%30.01 "Hg0 mi
5:00 AM54 °FFog.6 mph100%30.00 "Hg4 mi
4:00 AM54 °FFog.No wind94%29.99 "Hg6 mi
3:00 AM54 °FOvercast.5 mph94%29.98 "Hg15 mi
2:00 AM54 °FOvercast.2 mph94%29.98 "Hg15 mi
1:00 AM55 °FOvercast.2 mph94%29.98 "Hg15 mi
12:00 AM55 °FMostly cloudy.7 mph94%29.97 "Hg15 mi
11:00 PM
Mon, May 23
55 °FOvercast.7 mph94%29.96 "Hg15 mi
10:00 PM55 °FMostly cloudy.7 mph94%29.95 "Hg10 mi
9:00 PM55 °FDrizzle. Fog.6 mph94%29.95 "Hg5 mi
8:00 PM55 °FDrizzle. Fog.9 mph94%29.94 "Hg5 mi
7:00 PM59 °FPartly sunny.9 mph88%29.90 "Hg15 mi
6:00 PM61 °FPartly sunny.12 mph88%29.88 "Hg15 mi
5:00 PM63 °FPartly sunny.9 mph83%29.88 "Hg15 mi
4:00 PM59 °FDrizzle. Mostly cloudy.9 mph94%29.88 "Hg8 mi
3:00 PM59 °FDrizzle. Fog.8 mph94%29.89 "Hg5 mi
2:46 PM59 °FDrizzle. Fog.10 mph94%29.88 "Hg5 mi
2:00 PM59 °FSprinkles. Mostly cloudy.8 mph88%29.87 "Hg15 mi
1:00 PM59 °FLight rain. More clouds than sun.17 mph82%29.87 "Hg15 mi
12:00 PM57 °FOvercast.16 mph88%29.87 "Hg15 mi
11:00 AM55 °FLow clouds.17 mph94%29.86 "Hg15 mi
10:00 AM54 °FLow clouds.15 mph94%29.85 "Hg10 mi
Weather by CustomWeather, © 2016

See weather overviewHow to use our weather pages